[Date Prev][Date Next][Thread Prev][Thread Next] - [Date Index][Thread Index][Author Index]

2 Line ISS Keps 10-8



ISS
1 25544U 98067A   06280.83315972  .00017644  00000-0  11122-3 0  8153
2 25544 051.6380 327.1528 0013277 071.1247 272.2800 15.76661008450926
----
Sent via sarex@amsat.org. Opinions expressed are those of the author.
Not an AMSAT member? Join now to support the amateur satellite program!
Subscription settings: http://amsat.org/mailman/listinfo/sarex



AMSAT Top AMSAT Home